Satellite-Ground Cal/Val Region Overpasses Predictions

Prediction of Satellite NPP Overpassing Cal/Val Region: PacN

Region Location: (Latitude: 15.00, Longitude: 179.40) to (Latitude: 23.50, Longitude: 200.60).

Table of predicted overpasses for the next 14.0 days since TLE Epoch: 10/5/2024
Interval Starting Time Starting Location Ending Time Ending Location
1 10/07/2024 13:36:32 ( 18.53, 179.99) 10/07/2024 13:37:14 ( 16.06, 179.40)
2 10/12/2024 01:12:18 ( 19.66, 179.99) 10/12/2024 01:12:58 ( 22.00, 179.41)
3 10/12/2024 13:41:11 ( 23.48, 179.70) 10/12/2024 13:41:31 ( 22.31, 179.40)
